Tracking 30995 objects as of 5-Jul-2025
HD Live streaming from Space Station
objects crossing your sky now

ONEWEB-0351

Track ONEWEB-0351 now!
10-day predictions
ONEWEB-0351 is classified as:


NORAD ID: 49215
Int'l Code: 2021-083AF
Perigee: 1,186.9 km
Apogee: 1,190.9 km
Inclination: 87.9 °
Period: 109.0 minutes
Semi major axis: 7559 km
RCS: Unknown
Launch date: September 14, 2021
Source: United Kingdom (UK)
Launch site: TYURATAM MISSILE AND SPACE COMPLEX (TTMTR)
Your satellite tracking list
SL-16 R/B
Track 1 satellite(s)




NASA's NSSDC Master Catalog

Two Line Element Set (TLE):
1 49215U 21083AF  25185.99007052  .00000011  00000-0 -43650-5 0  9994
2 49215  87.9267 343.5879 0002633  90.3159 269.8276 13.20771687192253
Source of the keplerian elements: AFSPC